This is the latest recevied weather packets stored in our database for station/object IR1ZYZ-3. If no packets are shown the sender has not sent any weather packets the latest 10 day(s).
| Time | Temp. | Humidity | Pressure | Rain* | Wind** | Luminosity | Snow |
|---|---|---|---|---|---|---|---|
| 1777677210 | 12.78° C | 67% | 1027.1 hPa | - | - | - | - |
| 1777676605 | 12.22° C | 71% | 1027 hPa | - | - | - | - |
| 1777675999 | 11.67° C | 73% | 1027.1 hPa | - | - | - | - |
| 1777675394 | 12.22° C | 71% | 1027.1 hPa | - | - | - | - |
| 1777674788 | 12.22° C | 74% | 1027 hPa | - | - | - | - |
| 1777674184 | 12.22° C | 73% | 1027 hPa | - | - | - | - |
| 1777673578 | 12.22° C | 76% | 1027.1 hPa | - | - | - | - |
| 1777672973 | 11.67° C | 77% | 1027 hPa | - | - | - | - |
| 1777672369 | 11.67° C | 77% | 1027 hPa | - | - | - | - |
| 1777671763 | 11.67° C | 81% | 1027 hPa | - | - | - | - |
| 1777671158 | 12.22° C | 75% | 1026.7 hPa | - | - | - | - |
| 1777670554 | 12.78° C | 73% | 1026.6 hPa | - | - | - | - |
| 1777669949 | 12.78° C | 75% | 1026.6 hPa | - | - | - | - |
| 1777669345 | 12.22° C | 78% | 1026.6 hPa | - | - | - | - |
| 1777668740 | 12.22° C | 81% | 1026.7 hPa | - | - | - | - |
| 1777668135 | 12.22° C | 80% | 1026.4 hPa | - | - | - | - |
| 1777667530 | 12.78° C | 80% | 1026.4 hPa | - | - | - | - |
| 1777666926 | 12.78° C | 79% | 1026.3 hPa | - | - | - | - |
| 1777666321 | 12.78° C | 80% | 1026.2 hPa | - | - | - | - |
| 1777665716 | 13.33° C | 81% | 1026 hPa | - | - | - | - |
| 1777665112 | 12.78° C | 86% | 1025.9 hPa | - | - | - | - |
| 1777664507 | 12.78° C | 88% | 1025.8 hPa | - | - | - | - |
| 1777663902 | 12.78° C | 89% | 1025.5 hPa | - | - | - | - |
| 1777663298 | 12.78° C | 88% | 1025.5 hPa | - | - | - | - |
| 1777662693 | 13.33° C | 87% | 1025.4 hPa | - | - | - | - |
* Rain since midnight (hover to see other rain measurements)
** Current wind speed in m/s (hover to see current wind gust speed)